Weather History for Lake Hood, AK

Change the Weather History Date:

Sunday, March 31, 2013

  Actual Average Record
Temperature  
Mean Temperature 34 °F -  
Max Temperature 42 °F 34 °F 46 °F (2005)
Min Temperature 25 °F 20 °F 0 °F (2004)
Degree Days  
Heating Degree Days 32    
Moisture  
Dew Point 28 °F    
Average Humidity 86    
Maximum Humidity 100    
Minimum Humidity 65    
Precipitation  
Precipitation 0.00 in - - ()
Sea Level Pressure  
Sea Level Pressure 30.22 in    
Wind  
Wind Speed 1 mph (WNW)    
Max Wind Speed 6 mph    
Max Gust Speed -    
Visibility 5 miles    
Events Fog    
Averages and records for this station are not official NWS values.
T = Trace of Precipitation, MM = Missing Value Source: NWS Daily Summary

Daily Weather History Graph

Daily Weather History Graph

Search for Another Location

Airport:

Trip Planner

Search our weather history database for the weather conditions in past years. The results will help you decide how hot, cold, wet, or windy it might be!

Date:

Astronomy

Mar. 31, 2013 Rise Set
Actual Time 7:24 AM AKDT 8:44 PM AKDT
Civil Twilight 6:40 AM AKDT 9:29 PM AKDT
Nautical Twilight 5:44 AM AKDT 10:25 PM AKDT
Astronomical Twilight 4:38 AM AKDT 11:32 PM AKDT
Moon 2:16 AM AKDT (3/31) 9:03 AM AKDT (3/31)
Length of Visible Light 14h 48m
Length of Day
13h 19m
Waning Gibbous, 76% of the Moon is Illuminated
Mar 31
Waning Gibbous
Apr 2
Last Quarter
Apr 10
New
Apr 18
First Quarter
Apr 25
Full

Hourly Weather History & Observations

Time (AKDT) Temp. Windchill Dew Point Humidity Pressure Visibility Wind Dir Wind Speed Gust Speed Precip Events Conditions
12:53 AM 32.0 °F 28.7 °F 28.9 °F 88% 30.25 in 10.0 mi North 3.5 mph - N/A   Overcast
1:53 AM 33.1 °F - 30.9 °F 92% 30.25 in 10.0 mi Calm Calm - N/A   Overcast
2:53 AM 33.1 °F - 30.9 °F 92% 30.25 in 10.0 mi Calm Calm - N/A   Overcast
3:53 AM 32.0 °F 28.7 °F 30.0 °F 92% 30.25 in 10.0 mi ENE 3.5 mph - N/A   Mostly Cloudy
4:53 AM 30.0 °F - 28.0 °F 92% 30.25 in 4.0 mi Calm Calm - N/A   Clear
5:02 AM 30.2 °F - 28.4 °F 93% 30.25 in 2.5 mi Calm Calm - N/A   Partly Cloudy
5:11 AM 30.2 °F - 26.6 °F 86% 30.25 in 3.0 mi Calm Calm - N/A   Partly Cloudy
5:14 AM 28.4 °F - 26.6 °F 93% 30.25 in 1.5 mi Calm Calm - N/A   Partly Cloudy
5:22 AM 26.6 °F 22.6 °F 24.8 °F 93% 30.25 in 0.5 mi WNW 3.5 mph - N/A Fog Light Freezing Fog
5:45 AM 28.4 °F - 26.6 °F 93% 30.25 in 2.0 mi Calm Calm - N/A   Partly Cloudy
5:53 AM 28.0 °F - 26.1 °F 92% 30.25 in 1.0 mi Calm Calm - N/A   Clear
5:58 AM 26.6 °F - 24.8 °F 93% 30.25 in 0.2 mi Calm Calm - N/A Fog Light Freezing Fog
6:31 AM 26.6 °F - 24.8 °F 93% 30.25 in 0.2 mi Calm Calm - N/A Fog Light Freezing Fog
6:41 AM 26.6 °F - 23.0 °F 86% 30.25 in 0.8 mi Calm Calm - N/A   Mist
6:53 AM 25.0 °F - 21.9 °F 88% 30.26 in 0.5 mi Calm Calm - N/A Fog Light Freezing Fog
7:02 AM 26.6 °F - 23.0 °F 86% 30.25 in 0.2 mi Calm Calm - N/A Fog Light Freezing Fog
7:53 AM 26.1 °F - 24.1 °F 92% 30.25 in 0.2 mi Calm Calm - N/A Fog Light Freezing Fog
8:53 AM 28.9 °F - 28.0 °F 96% 30.25 in 0.2 mi Calm Calm - N/A Fog Light Freezing Fog
9:53 AM 30.9 °F - 30.0 °F 96% 30.25 in 0.2 mi Calm Calm - N/A Fog Light Freezing Fog
10:53 AM 30.0 °F - 28.9 °F 96% 30.26 in 0.2 mi Calm Calm - N/A Fog Light Freezing Fog
11:53 AM 30.9 °F - 30.9 °F 100% 30.26 in 0.5 mi Calm Calm - N/A Fog Light Freezing Fog
12:14 PM 32.0 °F - 30.2 °F 93% 30.25 in 1.0 mi Calm Calm - N/A   Overcast
12:20 PM 32.0 °F - 30.2 °F 93% 30.25 in 3.0 mi Calm Calm - N/A   Overcast
12:53 PM 35.1 °F 32.2 °F 30.0 °F 82% 30.25 in 10.0 mi NNW 3.5 mph - N/A   Overcast
1:53 PM 36.0 °F - 32.0 °F 86% 30.24 in 10.0 mi Calm Calm - N/A   Mostly Cloudy
2:53 PM 41.0 °F - 30.9 °F 67% 30.22 in 10.0 mi Calm Calm - N/A   Clear
3:53 PM 42.1 °F 40.2 °F 30.9 °F 65% 30.20 in 10.0 mi NW 3.5 mph - N/A   Clear
4:53 PM 41.0 °F 37.1 °F 30.9 °F 67% 30.18 in 10.0 mi WNW 5.8 mph - N/A   Clear
5:53 PM 39.9 °F 36.7 °F 30.9 °F 70% 30.16 in 10.0 mi WNW 4.6 mph - N/A   Clear
6:53 PM 41.0 °F 38.0 °F 30.0 °F 65% 30.15 in 10.0 mi WNW 4.6 mph - N/A   Clear
7:53 PM 39.0 °F 36.8 °F 30.9 °F 73% 30.14 in 10.0 mi South 3.5 mph - N/A   Overcast
8:53 PM 37.0 °F 34.5 °F 30.9 °F 79% 30.14 in 10.0 mi South 3.5 mph - N/A   Scattered Clouds
9:53 PM 35.1 °F - 30.0 °F 82% 30.13 in 10.0 mi Calm Calm - N/A   Scattered Clouds
10:53 PM 34.0 °F - 30.0 °F 85% 30.12 in 10.0 mi Calm Calm - N/A   Mostly Cloudy
11:53 PM 35.1 °F - 30.0 °F 82% 30.12 in 10.0 mi Calm Calm - N/A   Mostly Cloudy